Washington, MO

1:10 PM CDT on April 25, 2017 (GMT -0500)
Washington

Weather History for KFYG - February, 2013

Change the Weather History Date:

Tuesday, February 26, 2013

  Actual Average (KSUS) Record (KSUS)
Temperature  
Mean Temperature 34 °F -  
Max Temperature 35 °F 45 °F 68 °F (2009)
Min Temperature 32 °F 27 °F 9 °F (2015)
Degree Days  
Heating Degree Days 32    
Moisture  
Dew Point 34 °F    
Average Humidity 97    
Maximum Humidity 100    
Minimum Humidity 87    
Precipitation  
Precipitation 0.29 in - - ()
Sea Level Pressure  
Sea Level Pressure 29.47 in    
Wind  
Wind Speed 8 mph (North)    
Max Wind Speed 14 mph    
Max Gust Speed 25 mph    
Visibility 4 miles    
Events Rain , Snow    
Averages and records for this station are not official NWS values.
T = Trace of Precipitation, MM = Missing Value Source: NWS Daily Summary

Daily Weather History Graph

Daily Weather History Graph

Search for Another Location

Airport or City:

Trip Planner

Search our weather history database for the weather conditions in past years. The results will help you decide how hot, cold, wet, or windy it might be!

Date:

Astronomy

Feb. 26, 2013 Rise Set
Actual Time 6:39 AM CST 5:54 PM CST
Civil Twilight 6:13 AM CST 6:20 PM CST
Nautical Twilight 5:42 AM CST 6:51 PM CST
Astronomical Twilight 5:11 AM CST 7:22 PM CST
Moon 7:09 PM CST (2/26) 6:43 AM CST (2/26)
Length of Visible Light 12h 07m
Length of Day
11h 14m
Full, 99% of the Moon is Illuminated
Feb 26
Full
Mar 4
Last Quarter
Mar 11
New
Mar 19
First Quarter
Mar 27
Full

Hourly Weather History & Observations

Time (CST) Temp. Windchill Dew Point Humidity Pressure Visibility Wind Dir Wind Speed Gust Speed Precip Events Conditions
12:15 AM 35.6 °F 26.6 °F 33.8 °F 93% 29.56 in 2.0 mi NE 13.8 mph 25.3 mph 0.04 in Snow Light Snow
12:35 AM 35.6 °F 29.2 °F 33.8 °F 93% 29.55 in 3.0 mi ENE 8.1 mph 19.6 mph 0.07 in Rain Light Rain
12:55 AM 35.6 °F 28.6 °F 33.8 °F 93% 29.53 in 2.0 mi NNE 9.2 mph 18.4 mph 0.12 in Rain Rain
1:15 AM 35.6 °F 28.0 °F 33.8 °F 93% 29.51 in 2.5 mi NNE 10.4 mph 24.2 mph 0.04 in Snow Light Snow
1:35 AM 35.6 °F 29.9 °F 33.8 °F 93% 29.52 in 2.5 mi NE 6.9 mph - 0.09 in Rain Rain
1:55 AM 35.6 °F 28.6 °F 33.8 °F 93% 29.50 in 2.5 mi NNE 9.2 mph - 0.12 in Snow Light Snow
2:15 AM 35.6 °F 28.6 °F 33.8 °F 93% 29.48 in 3.0 mi ENE 9.2 mph 17.3 mph N/A Rain Light Rain
2:35 AM 35.6 °F 27.1 °F 32.0 °F 87% 29.46 in 4.0 mi East 12.7 mph 21.9 mph 0.01 in Rain Light Rain
2:55 AM 35.6 °F 28.0 °F 32.0 °F 87% 29.42 in 3.0 mi ENE 10.4 mph 20.7 mph 0.02 in Rain Light Rain
3:15 AM 35.6 °F 28.0 °F 32.0 °F 87% 29.42 in 3.0 mi ENE 10.4 mph 18.4 mph N/A Rain Light Rain
3:35 AM 35.6 °F 27.5 °F 32.0 °F 87% 29.40 in 3.0 mi ENE 11.5 mph 24.2 mph 0.01 in   Mostly Cloudy
3:55 AM 35.6 °F 29.9 °F 32.0 °F 87% 29.39 in 4.0 mi ENE 6.9 mph 18.4 mph 0.03 in Rain Light Rain
4:15 AM 35.6 °F 29.2 °F 32.0 °F 87% 29.39 in 5.0 mi East 8.1 mph - N/A Rain Light Rain
4:35 AM 33.8 °F 25.3 °F 32.0 °F 93% 29.38 in 2.5 mi ENE 11.5 mph - N/A Rain Light Rain
4:55 AM 33.8 °F 28.6 °F 32.0 °F 93% 29.38 in 2.5 mi ENE 5.8 mph - N/A Rain Light Rain
5:15 AM 33.8 °F 29.6 °F 32.0 °F 93% 29.36 in 5.0 mi ENE 4.6 mph - N/A   Mostly Cloudy
5:35 AM 35.6 °F 31.7 °F 32.0 °F 87% 29.37 in 8.0 mi ESE 4.6 mph - N/A   Mostly Cloudy
5:55 AM 35.6 °F 30.7 °F 33.8 °F 93% 29.36 in 5.0 mi East 5.8 mph - N/A   Overcast
6:15 AM 35.6 °F 32.8 °F 33.8 °F 93% 29.34 in 10.0 mi NNE 3.5 mph - N/A   Overcast
6:35 AM 35.6 °F 29.2 °F 33.8 °F 93% 29.35 in 7.0 mi East 8.1 mph - N/A   Overcast
6:55 AM 35.6 °F - 33.8 °F 93% 29.35 in 5.0 mi Calm Calm - N/A Rain Light Rain
7:15 AM 35.6 °F 31.7 °F 33.8 °F 93% 29.34 in 5.0 mi NNE 4.6 mph - N/A   Overcast
7:35 AM 35.6 °F 31.7 °F 35.6 °F 100% 29.34 in 4.0 mi East 4.6 mph - N/A   Overcast
7:55 AM 35.6 °F 32.8 °F 35.6 °F 100% 29.34 in 3.0 mi North 3.5 mph - N/A   Overcast
8:15 AM 35.6 °F 30.7 °F 35.6 °F 100% 29.34 in 1.8 mi East 5.8 mph - N/A   Overcast
8:35 AM 35.6 °F 31.7 °F 35.6 °F 100% 29.34 in 1.8 mi East 4.6 mph - N/A   Overcast
8:55 AM 35.6 °F 32.8 °F 35.6 °F 100% 29.35 in 2.5 mi ENE 3.5 mph - N/A   Overcast
9:15 AM 35.6 °F 31.7 °F 35.6 °F 100% 29.35 in 2.5 mi NE 4.6 mph - N/A   Overcast
9:35 AM 35.6 °F 29.9 °F 35.6 °F 100% 29.35 in 2.5 mi NNE 6.9 mph - N/A   Overcast
9:55 AM 35.6 °F 30.7 °F 35.6 °F 100% 29.36 in 2.5 mi NNE 5.8 mph - N/A   Overcast
10:15 AM 35.6 °F 31.7 °F 35.6 °F 100% 29.36 in 2.0 mi NNE 4.6 mph - N/A   Overcast
10:35 AM 35.6 °F - 35.6 °F 100% 29.36 in 1.5 mi Calm Calm - N/A   Overcast
10:55 AM 35.6 °F 29.9 °F 35.6 °F 100% 29.36 in 1.2 mi NE 6.9 mph - N/A Rain Light Rain
11:15 AM 35.6 °F 29.9 °F 35.6 °F 100% 29.36 in 1.0 mi North 6.9 mph - N/A Rain Light Rain
11:35 AM 35.6 °F 30.7 °F 35.6 °F 100% 29.37 in 1.2 mi North 5.8 mph - N/A   Overcast
11:55 AM 35.6 °F 30.7 °F 35.6 °F 100% 29.38 in 1.5 mi North 5.8 mph - N/A   Overcast
12:15 PM 35.6 °F 30.7 °F 35.6 °F 100% 29.38 in 1.8 mi NNW 5.8 mph - N/A   Overcast
12:35 PM 35.6 °F 28.6 °F 35.6 °F 100% 29.37 in 1.5 mi North 9.2 mph - N/A   Overcast
12:55 PM 35.6 °F 29.2 °F 35.6 °F 100% 29.37 in 1.8 mi North 8.1 mph - N/A   Overcast
1:15 PM 35.6 °F 29.2 °F 35.6 °F 100% 29.38 in 2.5 mi North 8.1 mph - N/A   Overcast
1:35 PM 35.6 °F 30.7 °F 35.6 °F 100% 29.39 in 5.0 mi North 5.8 mph - N/A   Overcast
1:55 PM 35.6 °F 28.6 °F 35.6 °F 100% 29.40 in 5.0 mi North 9.2 mph - N/A   Overcast
2:15 PM 35.6 °F 29.9 °F 35.6 °F 100% 29.41 in 3.0 mi North 6.9 mph - N/A   Overcast
2:35 PM 35.6 °F 29.9 °F 35.6 °F 100% 29.42 in 1.5 mi NNW 6.9 mph - N/A   Overcast
2:55 PM 35.6 °F 29.2 °F 35.6 °F 100% 29.43 in 1.2 mi NW 8.1 mph - N/A   Overcast
3:15 PM 35.6 °F 29.2 °F 35.6 °F 100% 29.44 in 1.0 mi NNW 8.1 mph - N/A   Overcast
3:35 PM 35.6 °F 29.9 °F 35.6 °F 100% 29.46 in 0.8 mi NW 6.9 mph - N/A Rain Light Rain
4:15 PM 35.6 °F 28.0 °F 35.6 °F 100% 29.47 in 1.2 mi NNW 10.4 mph - N/A   Mostly Cloudy
4:35 PM 35.6 °F 28.6 °F 35.6 °F 100% 29.49 in 1.2 mi NW 9.2 mph - N/A   Mostly Cloudy
4:55 PM 35.6 °F 29.2 °F 35.6 °F 100% 29.50 in 3.0 mi NW 8.1 mph - N/A   Overcast
5:15 PM 35.6 °F 28.0 °F 35.6 °F 100% 29.51 in 8.0 mi NW 10.4 mph - N/A   Overcast
5:35 PM 35.6 °F 28.6 °F 33.8 °F 93% 29.53 in 6.0 mi NW 9.2 mph - N/A   Overcast
5:55 PM 33.8 °F 26.4 °F 33.8 °F 100% 29.55 in 3.0 mi NW 9.2 mph - N/A Rain Light Rain
6:15 PM 33.8 °F 26.4 °F 33.8 °F 100% 29.56 in 3.0 mi NW 9.2 mph - N/A Rain Light Rain
6:35 PM 32.0 °F 24.8 °F 32.0 °F 100% 29.57 in 5.0 mi WNW 8.1 mph - N/A Rain Light Rain
6:55 PM 32.0 °F 24.8 °F 32.0 °F 100% 29.59 in 5.0 mi WNW 8.1 mph - N/A Rain Light Rain
7:15 PM 32.0 °F 24.2 °F 32.0 °F 100% 29.59 in 5.0 mi NW 9.2 mph - N/A   Overcast
7:35 PM 32.0 °F 24.2 °F 32.0 °F 100% 29.60 in 5.0 mi WNW 9.2 mph - N/A Rain Light Rain
7:55 PM 32.0 °F 24.8 °F 32.0 °F 100% 29.60 in 10.0 mi WNW 8.1 mph - N/A   Overcast
8:15 PM 32.0 °F 28.7 °F 32.0 °F 100% 29.61 in 10.0 mi NW 3.5 mph - N/A   Overcast
8:35 PM 33.8 °F 27.7 °F 32.0 °F 93% 29.62 in 10.0 mi WNW 6.9 mph - N/A   Overcast
8:55 PM 33.8 °F 26.4 °F 32.0 °F 93% 29.63 in 10.0 mi NW 9.2 mph - N/A   Overcast
9:15 PM 33.8 °F 25.3 °F 32.0 °F 93% 29.64 in 10.0 mi NW 11.5 mph - N/A   Overcast
9:35 PM 33.8 °F 24.8 °F 32.0 °F 93% 29.65 in 10.0 mi WNW 12.7 mph - N/A   Overcast
9:55 PM 33.8 °F 25.3 °F 32.0 °F 93% 29.66 in 10.0 mi NW 11.5 mph - N/A   Overcast
10:15 PM 32.0 °F 24.2 °F 32.0 °F 100% 29.67 in 10.0 mi WNW 9.2 mph - N/A   Overcast
10:35 PM 33.8 °F 25.3 °F 32.0 °F 93% 29.68 in 10.0 mi WNW 11.5 mph - N/A   Overcast
10:55 PM 32.0 °F 22.5 °F 32.0 °F 100% 29.69 in 10.0 mi WNW 12.7 mph - N/A   Overcast
11:15 PM 32.0 °F 23.6 °F 32.0 °F 100% 29.69 in 6.0 mi WNW 10.4 mph - N/A   Overcast
11:35 PM 32.0 °F 22.5 °F 32.0 °F 100% 29.70 in 6.0 mi WNW 12.7 mph - N/A   Overcast
11:55 PM 32.0 °F 23.6 °F 32.0 °F 100% 29.70 in 7.0 mi WNW 10.4 mph 20.7 mph N/A   Overcast